GFSSGP_con_mlcape_273.txt.gz
CAPE
0 0 0 0 0 0 0 252 389 407 436 383 237 152 11 0 4 66 321 137 250 928 1696 1719 1497 854 747 679 616 533 407 403 452 432 449 495 526 540 537 567 613 662 643 592 535 459 401 319 307
0 0 0 0 0 0 0 256 463 524 467 372 341 156 297 368 602 426 159 507 342 985 1555 1505 1329 727 632 604 559 441 444 466 470 482 478 480 511 582 638 641 638 746 939 1008 956 880 761 671 614
0 0 0 0 0 0 6 240 477 403 505 651 384 269 248 352 612 389 276 492 359 904 1277 1314 992 662 592 526 460 466 472 460 462 463 486 553 564 513 492 534 656 778 826 911 957 960 947 868 865
0 0 0 0 0 0 202 495 530 617 637 745 634 497 594 553 577 495 475 339 136 370 875 1147 790 577 538 453 438 462 474 482 512 563 651 694 662 665 636 632 638 637 723 779 813 823 792 722 614
0 0 0 0 0 0 237 681 620 457 393 582 455 255 452 647 602 539 482 271 141 365 617 898 668 506 490 561 540 488 471 562 658 679 716 736 791 850 828 836 857 918 895 850 827 752 642 572 510
0 0 0 0 0 0 149 565 293 159 385 339 301 416 588 779 625 528 410 337 394 261 725 763 935 860 756 745 629 542 602 574 625 678 736 863 963 1052 1147 1191 901 881 1118 1107 1009 909 848 800 742
0 0 0 0 0 0 0 245 222 147 152 172 263 175 667 919 800 638 541 616 593 433 550 691 953 972 887 661 625 556 514 527 608 747 915 1117 1221 1321 1415 1517 1432 1017 1278 1341 1097 767 820 790 819
0 0 0 0 0 8 6 221 197 71 45 242 277 24 542 920 990 1000 973 853 496 326 225 191 302 456 466 420 529 512 621 716 840 989 982 1145 564 264 520 1053 1080 753 639 781 386 235 7 17 486
0 0 0 3 0 14 22 128 204 211 96 363 502 291 799 944 1247 1299 1176 694 381 154 100 180 147 233 344 350 482 855 987 1047 1112 1024 758 243 0 0 0 0 0 0 7 226 0 0 0 0 0
0 0 0 0 0 0 32 97 180 349 252 560 326 538 738 678 1098 1078 1056 998 1018 851 346 255 381 381 509 800 892 888 1001 1210 1019 726 321 0 0 0 0 0 0 0 0 0 0 0 0 0 0
0 0 0 0 0 0 21 67 132 296 390 351 345 725 469 646 681 638 719 931 1138 1030 1086 693 767 1189 1389 1560 1334 1377 1199 1202 748 149 0 0 0 0 0 0 0 0 0 0 0 0 0 0 0
0 0 0 0 6 0 0 22 205 245 125 441 519 642 401 444 372 420 538 681 793 768 904 1015 1194 447 153 25 404 612 623 587 119 0 0 0 0 0 0 0 0 0 0 0 0 0 0 0 0
0 0 0 0 0 3 0 60 134 117 413 740 607 530 462 371 298 161 472 666 764 293 297 285 0 0 0 0 0 0 0 1 4 0 0 0 0 0 0 0 0 0 0 0 0 0 0 0 0
0 0 0 0 0 0 0 0 60 28 556 677 357 346 358 332 181 178 187 420 490 164 25 0 0 0 0 0 0 0 0 0 0 0 0 0 0 0 0 0 0 0 0 0 0 0 0 0 0
0 0 0 0 0 0 0 0 0 52 520 429 296 270 296 260 156 223 248 189 234 124 0 0 0 0 0 0 0 0 0 0 0 0 0 0 0 0 0 0 0 1 0 0 0 0 0 0 0
0 0 0 0 0 0 0 0 0 53 282 224 287 246 258 232 76 100 52 122 51 23 0 11 31 1 0 0 0 0 0 0 0 0 0 0 0 0 0 0 0 0 0 0 0 4 2 1 0
0 0 0 0 0 0 0 0 0 3 191 148 208 212 216 198 83 32 35 51 21 0 0 43 23 0 0 0 3 0 0 0 0 0 0 0 0 0 0 0 0 0 0 0 0 0 0 0 0
0 0 0 0 0 0 0 0 0 0 62 150 148 125 183 181 73 66 74 66 75 14 0 5 5 1 1 34 16 0 0 0 0 0 0 0 0 0 0 0 0 0 0 0 0 0 0 0 0
0 0 0 0 0 0 0 0 0 0 40 87 123 123 175 137 43 76 55 85 19 21 0 0 6 0 28 104 74 35 39 0 0 0 0 0 0 0 0 0 0 0 0 0 0 0 0 0 0
0 0 0 0 0 0 0 0 0 0 16 58 76 88 110 107 71 23 31 115 0 15 3 0 0 15 44 32 33 0 0 0 0 0 0 0 0 0 0 0 0 0 0 0 0 0 0 0 0
0 0 0 0 0 0 0 0 0 0 0 40 89 76 66 93 106 61 46 43 0 0 9 0 8 41 74 58 3 0 0 0 0 0 0 0 0 0 0 0 0 0 0 0 0 0 0 0 3
0 0 0 0 0 0 0 0 0 0 0 18 75 96 122 127 84 19 14 0 0 0 0 12 33 49 21 0 0 0 0 0 0 0 0 0 0 0 0 0 0 0 0 2 0 1 0 1 0
0 0 0 0 0 0 0 0 0 0 0 0 0 32 97 97 49 35 49 1 0 0 74 71 44 3 0 0 0 0 0 0 0 0 0 0 0 0 0 0 0 0 5 11 8 1 0 0 0
0 0 0 0 0 0 0 0 0 0 0 0 0 2 79 92 92 80 37 0 0 0 8 0 0 0 0 0 0 0 0 0 0 0 0 0 0 0 0 0 0 1 7 14 13 0 0 0 0
0 0 0 0 0 0 0 0 0 0 0 0 0 0 12 50 102 76 13 29 25 3 0 0 0 0 0 0 0 0 0 0 0 0 0 0 0 0 0 0 4 3 10 17 21 3 0 0 0
0 0 0 0 0 0 0 0 0 0 0 0 0 0 0 9 39 77 21 3 0 0 0 0 0 0 0 0 0 0 0 0 0 0 0 0 0 0 0 0 1 3 5 14 2 0 0 0 0
0 0 0 0 0 0 0 0 0 0 0 0 0 0 0 0 26 20 22 0 0 0 0 0 0 0 0 0 0 0 0 0 0 0 0 0 0 0 2 1 1 3 5 2 0 0 0 1 0
0 0 0 0 0 0 0 0 0 0 0 0 0 0 0 0 0 29 5 0 0 0 0 0 0 0 0 0 0 0 0 0 0 0 0 0 0 0 0 0 0 0 1 1 2 3 2 1 1
0 0 0 0 0 0 0 0 0 0 0 0 0 0 0 0 0 0 0 0 0 0 0 0 0 0 0 0 0 0 0 0 0 0 0 0 0 0 0 0 0 0 0 1 4 2 2 2 3
0 0 0 0 0 0 0 0 0 0 0 0 0 0 0 0 0 0 0 0 0 0 0 0 0 0 0 0 0 0 0 0 0 0 0 0 0 0 0 1 0 0 1 6 5 5 7 15 6

GFSSGP_con_mlcape_276.txt.gz
CAPE
0 0 0 0 2 0 0 222 303 120 135 193 92 94 2 0 0 11 187 141 662 1039 1446 1527 1427 734 618 579 522 438 435 471 487 505 538 562 592 589 592 630 665 728 777 756 671 556 494 519 587
0 0 0 0 0 0 17 213 348 372 387 273 188 180 267 309 483 180 0 328 714 1051 1484 1540 1393 737 631 573 508 431 436 429 471 527 583 582 583 609 636 672 697 781 966 1093 1118 1078 974 770 744
0 0 0 0 0 0 38 268 435 401 280 299 125 241 221 367 444 168 175 454 608 934 1327 1398 1338 692 559 502 450 442 416 425 467 547 566 562 586 590 579 616 659 736 867 988 1036 1015 983 938 910
0 0 0 0 0 0 215 355 370 443 567 638 506 125 487 488 442 284 505 436 363 664 1027 1264 963 612 599 558 575 470 436 501 558 613 617 664 747 762 780 808 846 875 995 1038 998 950 848 808 724
0 0 0 0 0 9 333 518 456 561 510 478 307 81 347 602 520 474 459 162 101 408 786 988 1002 813 673 640 590 551 581 545 630 648 683 808 868 943 1051 1097 955 935 1187 1270 1188 998 921 877 804
0 0 0 0 0 21 400 595 606 364 541 418 137 229 390 552 518 428 422 89 108 134 425 869 966 944 845 845 833 733 709 664 634 718 790 899 1030 1102 1246 1401 1421 1154 1141 1324 1128 917 764 847 825
0 0 0 0 0 3 356 510 452 218 360 222 221 141 548 642 430 334 340 207 285 361 524 725 862 978 1100 1068 958 792 604 590 654 742 861 892 797 683 838 1085 1382 815 555 970 770 329 59 130 563
0 0 0 0 0 0 47 554 256 156 201 373 369 34 466 758 528 518 462 516 448 290 347 282 502 747 768 708 882 635 567 671 828 913 919 718 226 134 452 478 261 9 64 428 110 0 0 0 27
0 0 0 0 0 15 63 411 159 116 156 243 307 315 562 906 733 688 654 432 322 204 187 108 109 165 235 222 259 587 800 1000 1103 1029 725 159 0 0 0 0 0 0 15 0 0 0 0 0 0
0 0 0 0 0 21 110 247 93 197 148 294 323 428 794 997 937 904 780 366 244 182 109 114 120 90 225 376 484 613 811 994 1022 703 322 0 0 0 0 0 0 0 0 0 0 0 0 0 0
0 0 0 0 0 3 85 144 124 214 17 368 188 309 788 919 1020 955 981 700 479 284 168 183 179 239 394 586 1072 1210 949 1051 896 306 10 0 0 0 0 0 0 0 0 0 0 0 0 0 0
0 0 0 0 0 0 73 77 264 168 128 519 144 308 623 728 961 1025 981 901 933 866 823 457 361 442 871 952 892 849 941 691 395 0 0 0 0 0 0 0 0 0 0 0 0 0 0 0 0
0 0 0 0 0 0 14 96 237 218 190 371 394 405 566 597 868 859 735 735 892 857 742 837 615 273 31 18 38 1 0 7 12 0 0 0 0 0 0 0 0 0 0 0 0 0 0 0 0
0 0 0 0 0 0 7 36 239 227 338 373 434 378 533 591 598 498 412 486 707 422 603 362 77 0 0 0 0 0 0 0 0 0 0 0 0 0 0 0 0 0 0 0 0 0 0 0 0
0 0 0 0 0 0 0 7 63 102 392 444 513 439 535 475 307 293 147 249 589 161 38 0 0 0 0 0 0 0 0 0 0 0 0 0 0 0 0 0 0 0 0 0 0 0 0 0 0
0 0 0 0 0 0 0 0 0 43 306 475 484 401 446 360 234 134 138 115 157 103 27 0 0 0 0 0 0 0 0 0 0 0 0 0 0 0 0 0 0 0 0 0 0 0 0 0 0
0 0 0 0 0 0 0 0 0 70 290 336 484 364 370 310 250 155 36 41 47 42 0 0 0 0 0 5 0 0 0 0 0 0 0 0 0 0 0 0 0 0 0 0 0 0 0 0 0
0 0 0 0 0 0 0 0 0 66 469 309 339 343 338 334 338 75 58 50 29 12 0 6 0 0 0 0 0 0 0 0 0 0 0 0 0 0 0 0 0 0 0 0 0 0 0 0 0
0 0 0 0 0 0 0 0 0 2 154 203 209 276 371 384 206 52 51 56 15 40 9 10 0 0 0 26 35 21 41 8 0 0 0 0 0 0 0 0 0 0 0 0 0 0 0 0 0
0 0 0 0 0 0 0 0 0 0 38 139 176 253 344 356 296 125 44 43 32 18 24 0 0 0 3 25 49 9 2 0 0 0 0 0 0 0 0 0 0 0 0 0 0 0 0 0 0
0 0 0 0 0 0 0 0 0 0 1 46 80 131 140 199 292 252 91 56 62 28 12 11 0 0 9 30 3 0 0 0 0 0 0 0 0 0 0 0 0 0 0 0 0 0 0 0 0
0 0 0 0 0 0 0 0 0 0 0 3 33 91 97 88 89 103 116 50 47 13 16 36 31 4 31 1 0 0 0 0 0 0 0 0 0 0 0 0 0 0 0 0 2 6 3 8 3
0 0 0 0 0 0 0 0 0 0 0 0 12 55 66 80 111 125 94 51 25 3 14 55 29 12 2 0 0 0 0 0 0 0 0 0 0 0 0 0 0 0 1 3 9 16 9 3 2
0 0 0 0 0 0 0 0 0 0 0 0 0 0 21 80 169 130 72 75 98 23 7 63 56 12 0 0 0 0 0 0 0 0 0 0 0 0 0 0 0 0 3 5 7 23 12 2 0
0 0 0 0 0 0 0 0 0 0 0 0 0 0 0 16 119 169 162 106 47 26 6 29 4 0 0 0 0 0 0 0 0 0 0 0 0 0 0 0 1 6 3 4 5 31 18 4 0
0 0 0 0 0 0 0 0 0 0 0 0 0 0 0 0 96 128 105 49 45 41 13 0 0 0 0 0 0 0 0 0 0 0 0 0 0 0 0 0 1 1 4 4 5 13 1 0 0
0 0 0 0 0 0 0 0 0 0 0 0 0 0 0 16 33 60 74 39 3 0 0 0 0 0 0 0 0 0 0 0 0 0 0 0 0 0 0 0 0 0 0 0 3 2 0 3 4
0 0 0 0 0 0 0 0 0 0 0 0 0 0 0 4 6 24 22 8 0 0 0 0 0 0 0 0 0 0 0 0 0 0 0 0 0 0 0 0 0 0 0 2 5 4 6 4 4
0 0 0 0 0 0 0 0 0 0 0 0 0 0 0 0 0 0 0 0 0 0 0 0 0 0 0 0 0 0 0 0 0 0 0 0 0 0 0 0 0 0 0 3 3 15 16 12 11
0 0 0 0 0 0 0 0 0 0 0 0 0 0 0 0 0 0 0 0 0 0 0 0 0 0 0 0 0 0 0 0 0 0 0 0 0 0 0 0 1 0 4 13 11 9 3 0 6

GFSSGP_con_mlcape_279.txt.gz
CAPE
0 0 0 0 0 6 125 271 336 174 53 149 64 71 9 7 0 68 275 438 974 951 1573 1332 988 780 658 508 462 390 438 489 551 552 564 625 659 653 618 636 693 865 1008 1018 969 930 888 830 807
0 0 0 0 10 1 83 264 369 285 455 270 111 205 276 299 529 83 0 485 1227 1421 1625 1431 1075 742 660 582 404 408 545 624 623 603 598 589 595 580 562 600 666 810 963 1025 1047 1040 1014 948 886
0 0 0 0 0 0 89 351 498 503 372 290 224 286 288 418 454 0 165 628 1217 1377 1532 1710 1339 905 793 660 489 499 500 504 520 568 608 644 665 629 584 629 722 818 915 971 977 897 834 793 747
0 0 0 0 0 0 194 369 538 406 457 389 253 219 451 580 443 349 477 684 871 1199 1445 1617 1258 917 846 669 554 513 470 540 599 612 654 775 850 870 828 788 793 993 1162 1225 1149 1003 865 815 759
0 0 0 0 0 5 228 627 478 479 534 666 394 134 401 709 574 648 589 506 583 999 1192 1432 1141 944 805 698 669 596 588 608 584 641 764 824 879 976 1088 1196 1197 1007 1014 1202 1170 918 726 744 803
0 0 0 0 0 8 501 623 581 535 585 513 264 260 442 655 676 600 478 267 557 641 1073 1299 982 848 787 767 782 682 646 727 703 696 758 793 873 928 1110 1270 1365 913 791 1047 931 448 213 181 485
0 0 0 0 0 6 531 609 669 421 474 388 270 256 632 695 527 632 545 291 318 498 601 828 862 957 848 844 844 711 714 598 617 680 721 800 457 332 604 927 914 155 146 668 266 3 0 0 107
0 0 0 0 0 0 230 691 544 425 354 389 372 89 545 871 525 596 560 406 420 433 390 543 842 774 1054 925 702 631 563 591 710 821 699 410 18 7 0 0 0 0 1 108 0 0 0 0 0
0 0 0 0 0 0 83 754 302 296 263 293 273 473 650 920 716 665 580 596 633 527 690 679 721 760 827 617 479 542 646 921 1007 794 383 80 24 0 0 0 0 0 0 0 0 0 0 0 0
0 0 0 0 0 6 48 672 498 253 166 182 253 532 890 986 905 789 568 535 525 438 451 532 506 578 509 399 580 861 1027 1311 1453 1054 623 48 4 0 0 0 0 0 0 0 0 0 0 0 0
0 0 0 0 0 7 103 490 400 177 256 120 178 312 930 1118 1107 1102 1091 643 540 493 359 260 267 336 510 756 1232 1211 1306 1432 1515 584 117 0 0 0 0 0 0 0 0 0 0 0 0 0 0
0 0 0 0 0 5 127 434 347 228 154 98 389 388 901 829 1132 1332 1465 1017 692 538 487 470 366 391 659 1002 1419 1759 1686 1481 902 35 0 2 1 3 0 0 0 0 0 0 0 0 0 0 0
0 0 0 0 0 0 157 301 417 259 193 369 594 627 827 862 1240 1419 1239 1210 1206 1107 1007 1144 633 619 605 816 697 643 390 532 78 0 0 0 0 0 0 0 0 0 0 0 0 0 0 0 0
0 0 0 0 0 0 75 156 367 430 352 481 638 387 791 853 1001 1059 986 1053 1091 1048 859 785 806 330 1 3 13 1 0 4 5 0 0 0 0 0 0 0 0 0 0 0 0 0 0 0 0
0 0 0 0 0 0 17 75 161 290 460 618 520 436 667 886 709 948 747 552 837 612 464 175 8 0 0 0 0 0 0 0 0 0 0 0 0 0 0 0 0 0 0 0 0 0 0 0 0
0 0 0 0 0 0 2 0 37 50 475 549 618 616 533 620 684 533 304 244 486 357 188 12 0 0 0 0 0 0 0 0 4 0 0 0 0 0 0 0 0 0 0 0 0 0 0 0 0
0 0 0 0 0 0 0 0 0 1 420 681 701 703 628 570 494 311 156 80 95 322 179 84 28 0 0 0 8 1 0 0 0 0 0 0 0 0 0 0 0 0 0 0 0 0 0 0 0
0 0 0 0 0 0 0 0 0 3 297 678 667 657 663 645 602 233 100 74 81 134 85 101 83 17 0 3 0 0 1 0 0 0 0 0 0 0 0 0 0 0 0 0 0 0 0 2 0
0 0 0 0 0 0 0 0 0 0 243 450 625 680 754 702 489 170 108 101 56 83 62 61 84 87 68 50 60 83 103 62 0 0 0 0 0 0 0 0 0 0 0 0 0 0 1 1 24
0 0 0 0 0 0 0 0 0 0 42 285 458 480 599 653 587 409 216 122 84 81 95 80 108 99 94 198 151 141 63 0 0 0 0 0 0 0 0 0 0 0 0 0 4 6 11 8 19
0 0 0 0 0 0 0 0 0 0 3 76 180 262 364 473 549 557 446 259 168 149 138 125 117 192 211 173 34 0 0 0 0 0 0 0 0 0 0 0 0 0 3 9 9 12 25 22 19
0 0 0 0 0 0 0 0 0 0 0 9 66 167 235 194 260 280 363 378 220 154 105 129 244 254 201 46 29 0 0 0 0 0 0 0 0 0 0 0 3 7 12 14 11 11 7 19 13
0 0 0 0 0 0 0 0 0 0 0 5 40 79 110 116 213 309 286 232 205 146 140 169 266 218 88 2 0 0 0 0 0 0 0 0 0 0 0 0 0 3 11 12 10 3 1 27 22
0 0 0 0 0 0 0 0 0 0 0 0 0 2 19 107 268 327 305 264 276 244 216 292 299 314 77 5 0 0 0 0 0 0 0 0 0 0 0 0 1 9 3 4 0 1 3 20 8
0 0 0 0 0 0 0 0 0 0 0 0 0 0 0 43 169 306 383 411 357 249 199 194 175 241 13 0 0 0 0 0 0 0 0 0 0 0 0 7 4 1 4 3 6 6 8 8 9
0 0 0 0 0 0 0 0 0 0 0 0 0 0 0 38 109 251 318 290 155 146 138 93 42 1 0 0 0 0 0 0 0 0 0 0 0 0 3 0 0 0 2 7 4 24 31 32 7
0 0 0 0 0 0 0 0 0 0 0 0 0 0 23 55 78 127 212 171 55 0 10 20 8 0 0 0 0 0 0 0 0 0 0 0 0 0 0 0 2 3 7 7 3 19 11 6 4
0 0 0 0 0 0 0 0 0 0 0 0 0 0 15 21 37 62 98 79 3 0 0 0 0 0 0 0 0 0 0 0 0 0 0 0 0 3 4 1 3 9 15 5 4 20 14 16 9
0 0 0 0 0 0 0 0 0 0 0 0 0 0 0 0 0 5 22 2 0 0 0 0 0 0 0 0 0 0 0 0 0 0 0 0 1 21 1 0 2 3 4 7 21 13 8 4 5
0 0 0 0 0 0 0 0 0 0 0 0 0 0 0 0 0 0 0 0 0 0 0 0 0 0 0 0 0 0 0 0 0 0 0 0 13 5 1 1 2 3 14 16 8 24 17 0 2

GFSSGP_con_mlcape_285.txt.gz
CAPE
0 0 162 290 232 80 34 0 0 3 1 110 58 225 212 396 342 424 0 171 165 404 357 439 984 1030 1071 867 784 724 756 773 738 713 676 644 640 608 600 624 688 801 889 906 908 885 824 751 696
42 49 97 132 38 37 36 24 24 6 15 127 156 346 257 350 0 89 108 135 153 620 456 279 984 1139 905 718 682 689 741 673 653 715 681 646 620 568 597 679 796 974 1099 1118 1095 1049 990 918 894
7 16 45 38 71 24 56 23 3 57 86 87 136 104 376 152 0 0 11 50 154 450 367 762 793 1099 921 768 672 727 653 715 796 793 800 857 899 853 811 879 916 1099 1306 1404 1447 1296 1018 887 931
0 0 58 19 19 109 20 33 38 16 2 0 56 274 368 281 427 91 62 148 219 366 671 929 729 968 965 846 789 707 733 769 801 832 955 1062 1025 1053 1139 1218 1159 959 871 1087 1186 1011 647 485 561
0 0 127 76 35 58 73 68 80 30 18 5 33 181 542 569 757 355 247 174 297 365 943 607 785 1007 1069 978 883 765 821 736 758 868 868 921 986 988 1095 1248 1204 530 265 513 679 276 0 28 158
0 10 39 3 15 35 79 106 63 47 45 20 40 52 314 317 324 359 229 284 263 371 476 729 701 855 925 880 810 744 761 733 663 633 661 587 260 287 417 763 646 77 20 160 200 0 0 0 5
0 3 33 41 18 35 24 122 25 41 32 24 54 15 529 578 623 493 166 217 190 295 516 499 246 605 660 772 793 673 614 528 458 428 450 198 46 37 14 106 8 0 0 0 0 0 0 0 0
0 3 27 31 30 41 32 65 54 40 0 35 70 28 226 262 363 245 138 230 251 144 235 400 521 420 468 520 458 589 612 510 445 348 201 48 1 0 1 0 0 0 0 4 21 0 0 0 0
0 0 13 46 3 22 28 23 99 4 9 21 34 112 165 176 230 208 118 150 149 128 201 280 323 498 548 923 881 329 471 497 560 539 189 44 148 45 42 0 0 0 0 0 0 0 0 0 0
0 0 13 32 52 4 41 45 21 41 53 18 46 196 411 252 210 206 226 217 193 194 305 387 464 582 628 475 938 860 1250 843 1189 697 547 195 86 97 54 16 0 0 0 0 3 0 0 0 0
0 0 0 0 0 36 50 63 19 63 5 83 66 93 588 579 417 297 383 342 388 485 613 786 1060 1212 936 750 1158 889 502 554 878 1293 632 197 189 146 112 8 15 1 2 0 0 0 1 0 0
0 0 0 4 0 1 40 83 15 83 23 100 60 87 497 682 733 726 549 528 761 976 1125 1227 1090 1403 1302 1351 1438 1351 636 640 339 724 562 276 219 149 150 61 5 0 0 0 0 0 0 0 0
0 0 0 0 3 29 47 59 50 15 47 39 142 222 300 681 899 1110 1109 1243 1195 1306 1399 1429 1643 1746 1751 2181 1655 1439 1025 538 701 418 210 233 213 337 43 0 0 0 0 0 0 0 0 0 0
0 0 0 0 29 2 4 46 17 21 53 113 323 436 365 579 920 1197 1471 1565 1750 1837 1713 1846 2079 2206 2353 2494 2177 1841 1511 731 417 146 199 298 76 87 9 0 0 0 0 0 0 0 0 0 0
0 0 0 0 0 46 3 19 23 27 77 147 354 627 623 404 888 1243 1332 1593 1596 1692 1961 2258 2494 2350 2158 1361 1226 773 411 162 148 102 425 139 125 16 0 0 0 0 0 0 0 0 0 0 0
0 1 0 0 0 8 0 1 0 36 109 114 263 656 782 722 829 1217 1682 1276 1238 1366 2152 2314 1264 1116 1116 703 555 273 289 223 216 309 303 231 90 0 0 0 0 0 0 0 0 0 0 0 0
6 1 23 19 0 4 0 6 2 4 7 12 154 680 865 1051 1186 1298 1456 1138 1230 1503 1708 1791 1343 967 937 805 545 472 831 192 319 511 569 291 49 0 0 0 0 0 0 0 0 0 0 0 2
0 9 3 14 1 0 13 35 28 0 0 10 181 713 990 1085 1475 1627 1366 1140 1105 1302 1610 1665 1618 1435 1142 637 900 423 407 489 781 846 632 179 3 0 0 0 0 0 0 0 1 0 7 9 8
0 0 4 17 0 0 0 0 0 0 0 15 414 784 1057 1056 1424 1654 1595 1232 1138 1145 1347 1450 1532 1456 1251 857 758 627 659 750 929 924 368 87 0 0 0 0 1 1 3 2 15 13 14 7 9
0 20 0 0 0 0 0 0 7 0 11 128 404 717 1002 1157 1265 1551 1671 1457 1371 1357 1409 1336 1319 1421 1620 1029 1129 1359 1429 868 681 456 174 142 100 26 2 1 6 16 17 22 18 30 21 20 4
0 3 0 0 0 0 0 2 7 4 206 354 516 782 883 843 551 774 1183 1511 1498 1552 1535 1509 1534 1523 1720 1513 1290 1498 1350 1252 637 419 216 49 36 0 5 12 18 15 6 5 15 20 23 17 12
28 0 0 0 0 19 0 5 42 10 18 54 266 235 145 105 99 229 518 921 1302 1407 1340 1454 1602 1649 1718 1916 1412 1347 1382 827 332 127 0 45 10 0 7 11 3 2 14 17 20 23 10 24 16
0 0 0 0 0 0 1 0 65 18 74 41 70 79 83 88 128 95 384 506 463 805 867 1262 1665 1959 1908 1735 1676 1304 695 171 13 0 26 34 5 0 0 1 0 11 17 31 21 19 6 6 8
0 6 8 2 13 25 2 0 47 0 4 75 70 50 72 71 70 109 239 317 351 371 443 888 1663 1956 1900 1783 1575 1099 681 360 144 129 21 0 0 0 0 0 3 10 29 15 17 27 11 3 17
9 0 22 16 8 23 0 0 25 0 0 0 0 5 41 99 100 111 157 250 328 262 389 624 1129 1480 1764 1346 753 493 361 352 199 4 0 2 0 0 0 1 1 13 6 26 14 9 8 17 13
45 25 13 21 34 6 0 3 16 0 0 0 0 0 0 19 58 145 198 306 183 239 607 801 548 736 692 586 414 330 415 134 44 42 40 27 1 0 3 11 16 24 32 14 11 0 2 12 17
50 36 21 124 50 30 35 47 70 0 8 16 18 25 35 43 119 190 253 304 245 324 539 624 207 333 330 347 311 326 180 69 67 61 51 13 0 4 3 14 27 25 24 3 0 3 14 24 5
54 0 67 9 46 38 8 44 0 0 0 0 0 5 21 73 131 225 270 251 427 362 315 217 177 87 124 234 146 68 25 10 7 30 15 2 6 7 18 25 22 25 0 4 10 12 32 9 11
82 34 29 31 83 33 48 47 12 0 0 0 0 2 9 73 143 170 154 144 350 192 115 100 98 130 80 47 78 1 7 19 15 25 3 7 13 16 24 20 20 0 0 27 22 23 19 17 28
2 36 25 16 2 4 34 52 6 2 5 5 1 63 83 45 48 81 90 129 104 85 152 200 189 116 56 13 1 2 0 40 18 3 9 8 20 35 33 34 0 0 19 35 16 20 15 22 26

GFSSGP_con_mlcape_291.txt.gz
CAPE
0 0 0 6 23 30 0 0 0 0 0 195 37 41 105 4 0 0 13 1 0 8 260 300 330 381 428 399 382 343 410 505 562 605 631 546 488 492 519 632 814 1019 1135 1113 1045 894 726 568 526
0 0 0 33 1 1 0 0 23 40 1 102 0 47 96 157 14 21 102 13 0 0 137 237 386 417 350 277 308 396 482 539 604 592 572 590 602 605 621 670 725 909 1047 1097 997 660 279 118 131
0 5 8 3 1 0 3 13 0 82 62 52 0 0 0 6 0 1 129 103 0 12 176 276 336 246 229 245 412 572 561 536 504 530 680 834 873 830 790 794 534 346 297 446 570 283 31 4 0
0 0 0 0 4 16 5 0 0 7 105 79 92 351 0 0 0 0 260 229 37 57 110 92 207 281 330 367 421 501 370 359 349 548 735 821 933 899 867 805 463 83 31 115 209 29 0 0 0
0 0 0 0 2 1 2 0 0 37 181 139 75 269 12 0 0 0 252 275 78 399 349 88 111 211 266 359 462 383 363 280 449 681 704 531 426 261 229 229 43 0 0 0 0 0 0 0 0
0 0 0 0 0 50 1 0 0 0 2 18 1 178 123 0 0 0 37 380 510 511 352 164 164 182 216 326 335 259 295 389 590 601 425 227 52 9 88 54 7 0 0 0 0 0 0 0 0
0 0 0 2 12 37 0 0 0 1 3 37 87 76 174 106 31 16 51 906 914 448 9 3 40 91 171 278 338 297 346 622 681 497 282 104 28 64 159 91 4 0 0 0 0 0 0 0 0
0 0 0 0 27 5 14 0 0 0 0 15 203 311 198 100 27 29 0 769 389 148 1 0 0 5 137 313 301 285 454 726 673 692 910 799 56 78 50 86 31 0 0 0 0 0 0 0 0
0 0 0 3 1 27 2 0 0 0 0 0 9 315 286 182 34 30 8 0 374 401 283 0 48 0 43 130 238 738 1005 204 114 66 117 222 652 95 84 63 40 0 0 0 0 0 0 0 0
0 9 21 8 12 15 13 0 0 0 0 0 1 261 337 139 35 26 50 24 26 451 276 199 259 242 187 299 557 778 362 15 0 0 13 187 337 252 223 142 153 45 0 0 0 0 0 0 0
0 0 5 32 33 51 8 26 6 2 0 14 19 211 185 60 2 29 76 55 12 4 180 340 327 473 374 446 757 413 129 0 0 0 49 2 446 341 123 25 4 0 0 0 0 0 0 0 0
0 0 0 0 9 73 20 17 17 0 0 0 4 159 179 65 68 124 41 0 0 97 154 347 404 383 693 895 558 519 132 1 10 1 0 69 512 231 115 26 0 0 0 0 0 0 0 0 0
0 0 0 0 0 15 83 82 37 0 2 0 2 28 140 304 183 46 51 63 101 367 470 578 857 980 1219 1378 1018 528 288 28 73 7 2 178 264 101 60 0 0 0 0 0 0 0 0 0 0
0 0 0 0 0 2 108 27 12 6 1 0 0 129 186 3 8 244 124 193 715 616 825 918 1217 1494 1690 1911 1985 989 429 65 67 151 540 134 142 123 79 2 0 0 0 0 0 0 0 0 0
0 0 0 0 0 0 4 24 1 0 5 4 0 29 1 0 11 58 309 1311 1298 1237 1464 1702 1978 2062 2098 1582 1078 1054 184 308 358 257 177 149 151 68 0 0 0 0 0 0 0 0 0 0 0
0 0 0 0 0 0 0 0 2 0 0 3 29 21 34 113 374 625 986 950 1467 1522 1442 1475 1855 1741 1001 835 561 431 210 204 233 320 296 310 152 7 0 0 0 0 0 0 0 0 0 0 0
0 0 0 0 0 0 0 0 4 0 0 0 2 11 19 18 171 141 330 239 1385 1586 1568 1267 896 1005 887 702 583 748 240 202 32 0 0 235 175 0 0 0 0 0 0 0 0 0 0 0 0
0 0 0 0 0 0 0 0 0 0 1 9 21 73 72 1 29 0 560 579 1571 1841 1806 1450 1114 1103 1157 1040 649 483 351 124 27 28 0 19 68 0 0 0 0 0 0 0 0 0 0 0 0
0 20 13 0 0 0 2 0 0 0 0 0 23 86 322 56 607 260 14 827 1651 1721 1759 1628 1755 1583 1482 955 670 858 732 400 419 246 147 243 162 2 0 0 0 0 0 0 0 0 0 0 0
0 0 0 0 0 0 0 0 21 59 151 138 150 587 515 461 53 327 719 781 608 810 1295 1697 1795 1824 1723 1274 1215 1349 1295 1044 827 618 419 341 76 118 63 39 0 0 0 0 0 0 0 0 0
0 0 0 0 0 0 0 33 50 25 96 45 70 289 798 639 746 73 310 0 304 0 0 0 1499 1918 2039 1926 1527 1634 1630 1597 1024 374 347 386 192 110 62 33 7 0 0 0 0 0 0 0 0
0 0 0 0 0 0 0 15 15 14 0 0 6 84 350 571 255 44 16 0 32 0 0 0 1667 1884 1937 1836 1636 1643 1193 881 399 22 147 22 59 45 16 2 0 0 0 0 0 0 0 0 3
0 2 0 7 0 3 2 1 38 1 0 5 2 23 70 216 478 451 275 43 1 0 270 579 9 1676 2081 1990 1656 1338 1251 631 277 76 55 61 45 27 0 3 0 0 0 0 0 0 0 2 3
0 21 23 27 0 5 0 0 4 0 0 0 1 0 0 34 152 129 23 29 25 3 57 47 318 1319 1703 1475 1413 1620 1162 664 353 213 173 22 21 26 29 0 0 0 0 0 0 0 4 4 3
2 2 0 0 0 0 0 0 0 0 0 0 0 0 0 5 14 0 0 0 0 0 0 568 693 1450 1586 981 1023 1210 622 234 30 0 10 8 18 3 4 0 0 1 4 3 6 14 25 0 0
16 0 0 4 51 3 5 0 0 0 0 0 0 3 8 87 62 54 0 0 0 0 1 67 852 621 1157 504 537 169 55 0 0 0 10 4 3 0 0 1 5 20 17 16 27 7 1 9 6
56 8 0 0 86 54 0 0 0 0 0 0 0 11 3 5 97 16 2 0 0 3 0 82 0 30 126 170 20 7 0 0 0 0 0 0 0 1 0 5 10 27 28 8 0 0 15 14 14
0 10 52 2 2 0 0 0 0 0 7 0 3 11 0 0 22 22 3 32 122 49 0 0 0 0 0 0 0 0 0 0 0 0 0 0 1 0 14 18 9 5 0 0 13 18 15 8 5
22 9 60 48 5 0 5 4 0 0 14 0 0 0 0 0 20 0 79 104 60 4 0 0 0 0 0 0 0 0 0 0 0 0 0 0 1 4 3 3 0 0 0 1 5 30 16 9 9
0 43 21 0 10 15 27 11 0 0 0 0 1 0 0 10 23 4 18 108 16 0 0 0 0 0 0 0 0 0 0 0 0 0 0 0 0 0 0 0 1 0 0 3 14 19 1 2 3